Pittsburgh, PA

9:39 AM EST on February 10, 2016 (GMT -0500)
Allegheny County

Weather History for KAGC - March, 2013

Change the Weather History Date:

Sunday, March 24, 2013

  Actual Average Record
Temperature  
Mean Temperature 34 °F -  
Max Temperature 43 °F 52 °F 73 °F (1988)
Min Temperature 26 °F 32 °F 16 °F (2014)
Degree Days  
Heating Degree Days 30    
Moisture  
Dew Point 23 °F    
Average Humidity 69    
Maximum Humidity 93    
Minimum Humidity 41    
Precipitation  
Precipitation 0.00 in - - ()
Sea Level Pressure  
Sea Level Pressure 29.77 in    
Wind  
Wind Speed 7 mph (ENE)    
Max Wind Speed 15 mph    
Max Gust Speed 23 mph    
Visibility 8 miles    
Events Snow    
Averages and records for this station are not official NWS values.
T = Trace of Precipitation, MM = Missing Value Source: NWS Daily Summary

Daily Weather History Graph

Daily Weather History Graph

Search for Another Location

Airport or City:

Trip Planner

Search our weather history database for the weather conditions in past years. The results will help you decide how hot, cold, wet, or windy it might be!

Date:

Astronomy

Mar. 24, 2013 Rise Set
Actual Time 7:16 AM EDT 7:36 PM EDT
Civil Twilight 6:48 AM EDT 8:03 PM EDT
Nautical Twilight 6:17 AM EDT 8:35 PM EDT
Astronomical Twilight 5:44 AM EDT 9:08 PM EDT
Moon 5:02 PM EDT (3/24) 5:25 AM EDT (3/24)
Length of Visible Light 13h 14m
Length of Day
12h 20m
Waxing Gibbous, 91% of the Moon is Illuminated
Mar 24
Waxing Gibbous
Mar 27
Full
Apr 3
Last Quarter
Apr 10
New
Apr 18
First Quarter

Hourly Weather History & Observations

Time (EDT) Temp. Windchill Dew Point Humidity Pressure Visibility Wind Dir Wind Speed Gust Speed Precip Events Conditions
12:53 AM 30.0 °F 25.2 °F 19.0 °F 64% 29.99 in 10.0 mi Variable 4.6 mph - N/A   Clear
1:53 AM 28.0 °F 24.2 °F 19.0 °F 69% 30.00 in 10.0 mi Variable 3.5 mph - N/A   Clear
2:53 AM 28.0 °F 22.8 °F 19.0 °F 69% 29.99 in 10.0 mi ENE 4.6 mph - N/A   Clear
3:53 AM 27.0 °F 21.6 °F 19.0 °F 72% 29.97 in 10.0 mi NE 4.6 mph - N/A   Clear
4:53 AM 27.0 °F 21.6 °F 19.9 °F 75% 29.98 in 10.0 mi NE 4.6 mph - N/A   Clear
5:53 AM 26.1 °F 20.5 °F 19.0 °F 75% 29.96 in 10.0 mi NNE 4.6 mph - N/A   Clear
6:53 AM 27.0 °F 21.6 °F 19.9 °F 75% 29.97 in 10.0 mi NE 4.6 mph - N/A   Clear
7:53 AM 27.0 °F 23.0 °F 19.9 °F 75% 29.96 in 10.0 mi NE 3.5 mph - N/A   Clear
8:53 AM 28.0 °F 20.8 °F 21.0 °F 75% 29.93 in 10.0 mi NNE 6.9 mph - N/A   Clear
9:53 AM 30.0 °F 24.1 °F 21.0 °F 69% 29.92 in 10.0 mi NE 5.8 mph - N/A   Clear
10:53 AM 33.1 °F 27.7 °F 21.9 °F 64% 29.85 in 10.0 mi Variable 5.8 mph - N/A   Clear
11:53 AM 35.1 °F 29.3 °F 19.9 °F 54% 29.81 in 10.0 mi NE 6.9 mph - N/A   Clear
12:53 PM 37.0 °F 30.4 °F 19.9 °F 50% 29.76 in 10.0 mi ENE 9.2 mph - N/A   Clear
1:53 PM 37.9 °F 30.9 °F 19.9 °F 48% 29.74 in 10.0 mi NE 10.4 mph - N/A   Clear
2:53 PM 43.0 °F 38.8 °F 21.0 °F 42% 29.71 in 10.0 mi Variable 6.9 mph - N/A   Clear
3:53 PM 41.0 °F 35.8 °F 19.9 °F 43% 29.69 in 10.0 mi East 8.1 mph - N/A   Clear
4:53 PM 42.1 °F 35.7 °F 19.9 °F 41% 29.66 in 10.0 mi East 11.5 mph - N/A   Scattered Clouds
5:53 PM 39.9 °F 32.9 °F 19.9 °F 45% 29.64 in 10.0 mi East 11.5 mph - N/A   Overcast
6:53 PM 39.0 °F 30.6 °F 21.0 °F 49% 29.62 in 10.0 mi SE 15.0 mph 21.9 mph N/A   Overcast
7:51 PM 33.8 °F 25.3 °F 28.4 °F 81% 29.57 in 2.5 mi ESE 11.5 mph 23.0 mph 0.00 in Snow Light Snow
7:53 PM 34.0 °F 25.5 °F 28.0 °F 79% 29.62 in 0.8 mi ESE 11.5 mph 21.9 mph 0.00 in Snow Light Snow
8:46 PM 32.0 °F 23.0 °F 30.2 °F 93% 29.57 in 0.8 mi East 11.5 mph 19.6 mph 0.00 in Snow Light Snow
8:53 PM 32.0 °F 23.0 °F 30.0 °F 92% 29.62 in 4.0 mi East 11.5 mph - 0.00 in Snow Light Snow
9:53 PM 32.0 °F 23.0 °F 28.9 °F 88% 29.59 in 2.0 mi East 11.5 mph - 0.00 in Snow Light Snow
10:20 PM 32.0 °F 24.2 °F 30.2 °F 93% 29.53 in 3.0 mi East 9.2 mph 18.4 mph 0.00 in Snow Light Snow
10:53 PM 32.0 °F 22.1 °F 28.9 °F 88% 29.56 in 10.0 mi East 13.8 mph - 0.00 in   Overcast
11:53 PM 32.0 °F 22.5 °F 28.0 °F 85% 29.55 in 3.0 mi East 12.7 mph - 0.00 in Snow Light Snow